DW8661 Weather Reports


Display with metric or nautical units.
time (UTC)temp
F
wind
direction
speed
MPH
gust
MPH
rain 1hr
in
rain 24hr
in
rain mn
in
humidity
%
barometer
mb
20260507090001 58 298 2.0 7.0 0.00 0.00 0.00 64 1012.9
20260507084602 57 62 1.0 11.0 0.00 0.00 0.00 68 1013.0
20260507083119 56 20 2.0 8.0 0.00 0.00 0.00 68 1013.0
20260507081605 55 69 2.0 6.0 0.00 0.00 0.00 70 1013.0
20260507080059 55 23 5.0 10.0 0.00 0.00 0.00 70 1012.9
20260507074621 54 18 3.0 10.0 0.00 0.00 0.00 71 1012.9
20260507073104 54 6 3.0 6.0 0.00 0.00 0.00 71 1012.9
20260507071559 54 55 3.0 10.0 0.00 0.00 0.00 71 1013.0
20260507070104 54 324 5.0 11.0 0.00 0.00 0.00 71 1012.9
20260507064602 53 30 3.0 9.0 0.00 0.00 0.00 71 1012.8
20260507063100 54 45 1.0 6.0 0.00 0.00 0.00 71 1012.6
20260507061601 53 29 4.0 8.0 0.00 0.00 0.00 71 1012.6
20260507060100 53 37 2.0 8.0 0.00 0.00 0.00 71 1012.5
20260507060007 53 27 2.0 8.0 0.00 0.00 0.00 72 1012.5
20260507054559 53 49 3.0 13.0 0.00 0.00 0.00 72 1012.3
20260507053100 53 26 7.0 11.0 0.00 0.00 0.00 72 1012.2
20260507051605 53 28 4.0 8.0 0.00 0.00 0.00 72 1012.2
20260507051501 53 338 4.0 8.0 0.00 0.00 0.00 72 1012.2
20260507050100 53 49 4.0 10.0 0.00 0.00 0.00 71 1012.2
20260507050002 53 50 4.0 10.0 0.00 0.00 0.00 71 1012.2
20260507044601 53 7 4.0 9.0 0.00 0.00 0.00 71 1012.2
20260507043103 52 12 4.0 10.0 0.00 0.00 0.00 71 1012.2
20260507041600 52 25 4.0 10.0 0.00 0.00 0.00 71 1012.2
20260507040059 52 13 2.0 10.0 0.00 0.00 0.00 71 1012.2
20260507040002 52 63 4.0 10.0 0.00 0.00 0.00 71 1012.2
20260507034601 52 68 3.0 9.0 0.00 0.00 0.00 70 1012.3
20260507033100 52 25 4.0 9.0 0.00 0.00 0.00 70 1012.2
20260507031559 52 23 5.0 9.0 0.00 0.00 0.00 69 1012.1
20260507030100 52 15 5.0 11.0 0.00 0.00 0.00 68 1012.2
20260507030001 52 30 6.0 11.0 0.00 0.00 0.00 68 1012.2
20260507024630 53 29 4.0 12.0 0.00 0.00 0.00 68 1012.2
20260507023100 53 359 6.0 9.0 0.00 0.00 0.00 67 1012.2
20260507021601 53 7 4.0 8.0 0.00 0.00 0.00 65 1012.2
20260507020111 54 7 2.0 8.0 0.00 0.00 0.00 63 1012.2
20260507014608 54 3 3.0 7.0 0.00 0.00 0.00 62 1012.1
20260507013058 54 93 5.0 9.0 0.00 0.00 0.00 61 1012.1
20260507011603 55 105 2.0 8.0 0.00 0.00 0.00 60 1012.2
20260507010059 55 75 6.0 10.0 0.00 0.00 0.00 59 1012.3
20260507010001 55 56 6.0 10.0 0.00 0.00 0.00 59 1012.3
20260507004600 55 36 5.0 12.0 0.00 0.00 0.00 58 1012.3
20260507003059 55 45 7.0 15.0 0.00 0.00 0.00 57 1012.4
20260507001602 56 34 6.0 12.0 0.00 0.00 0.00 56 1012.3
20260507000100 56 25 6.0 13.0 0.00 0.00 0.00 54 1012.1
20260507000002 56 65 5.0 13.0 0.00 0.00 0.00 54 1012.1
20260506234605 57 22 8.0 14.0 0.00 0.00 0.00 51 1012.1
20260506233101 57 41 4.0 11.0 0.00 0.00 0.00 48 1012.1
20260506231601 58 8 4.0 9.0 0.00 0.00 0.00 46 1012.0
20260506230002 59 34 5.0 8.0 0.00 0.00 0.00 44 1012.0
20260506224501 59 22 1.0 5.0 0.00 0.00 0.00 40 1012.0
20260506223001 60 38 3.0 5.0 0.00 0.00 0.00 38 1012.0
20260506221501 61 113 2.0 5.0 0.00 0.00 0.00 36 1011.9
20260506220002 61 63 1.0 4.0 0.00 0.00 0.00 35 1012.0
20260506214600 61 71 2.0 5.0 0.00 0.00 0.00 36 1012.1
20260506214502 61 56 2.0 5.0 0.00 0.00 0.00 36 1012.1
20260506213140 61 72 1.0 4.0 0.00 0.00 0.00 37 1012.1
20260506211632 61 50 0.0 2.0 0.00 0.00 0.00 36 1012.1
20260506211502 61 79 0.0 2.0 0.00 0.00 0.00 36 1012.1
20260506210103 61 57 0.0 2.0 0.00 0.00 0.00 36 1012.1
20260506210002 61 58 0.0 2.0 0.00 0.00 0.00 36 1012.1
20260506204502 62 25 0.0 1.0 0.00 0.00 0.00 35 1012.0
20260506203002 62 76 0.0 1.0 0.00 0.00 0.00 33 1011.9
20260506201503 63 1 1.0 3.0 0.00 0.00 0.00 31 1011.9
20260506200005 63 25 0.0 3.0 0.00 0.00 0.00 31 1011.9
20260506194502 63 7 1.0 4.0 0.00 0.00 0.00 30 1011.8
20260506193001 63 19 1.0 3.0 0.00 0.00 0.00 30 1011.7
20260506191502 63 323 0.0 2.0 0.00 0.00 0.00 32 1011.7
20260506190002 63 194 0.0 1.0 0.00 0.00 0.00 31 1011.6
20260506184609 64 208 1.0 3.0 0.00 0.00 0.00 30 1011.5
20260506184501 64 205 1.0 3.0 0.00 0.00 0.00 30 1011.6
20260506183105 64 213 0.0 4.0 0.00 0.00 0.00 28 1011.6
20260506183001 64 213 0.0 4.0 0.00 0.00 0.00 29 1011.5
20260506181600 65 205 0.0 4.0 0.00 0.00 0.00 28 1011.5
20260506180100 65 189 2.0 7.0 0.00 0.00 0.00 29 1011.5
20260506180000 65 105 3.0 7.0 0.00 0.00 0.00 28 1011.6
20260506174503 65 320 1.0 6.0 0.00 0.00 0.00 29 1011.6
20260506173109 66 122 4.0 11.0 0.00 0.00 0.00 29 1011.7
20260506171501 66 63 3.0 8.0 0.00 0.00 0.00 29 1011.7
20260506170116 68 77 1.0 10.0 0.00 0.00 0.00 28 1011.7
20260506164603 69 122 4.0 11.0 0.00 0.00 0.00 28 1011.8
20260506164502 69 130 5.0 11.0 0.00 0.00 0.00 27 1011.8
20260506163112 70 28 0.0 4.0 0.00 0.00 0.00 28 1011.9
20260506161601 69 193 3.0 6.0 0.00 0.00 0.00 28 1011.9
20260506160113 68 200 2.0 9.0 0.00 0.00 0.00 29 1012.0
20260506160002 68 107 2.0 9.0 0.00 0.00 0.00 29 1012.0
20260506154606 67 110 5.0 10.0 0.00 0.00 0.00 29 1012.1
20260506153104 67 354 2.0 7.0 0.00 0.00 0.00 29 1012.2
20260506151607 67 233 3.0 9.0 0.00 0.00 0.00 28 1012.3
20260506150004 68 112 1.0 7.0 0.00 0.00 0.00 30 1012.4
20260506144608 67 101 2.0 6.0 0.00 0.00 0.00 29 1012.8
20260506143001 67 137 4.0 9.0 0.00 0.00 0.00 31 1012.9
20260506141601 66 326 1.0 5.0 0.00 0.00 0.00 33 1013.1
20260506140106 67 226 2.0 8.0 0.00 0.00 0.00 33 1013.4
20260506140002 67 212 3.0 8.0 0.00 0.00 0.00 33 1013.4
20260506134600 67 146 0.0 4.0 0.00 0.00 0.00 33 1013.5
20260506133103 67 211 2.0 6.0 0.00 0.00 0.00 35 1013.7
20260506131603 65 160 4.0 10.0 0.00 0.00 0.00 35 1013.8
20260506130009 65 136 3.0 10.0 0.00 0.00 0.00 37 1013.9
20260506124501 64 203 1.0 11.0 0.00 0.00 0.00 39 1014.1
20260506123100 64 212 4.0 9.0 0.00 0.00 0.00 38 1014.3
20260506123001 64 195 3.0 8.0 0.00 0.00 0.00 37 1014.3
20260506121600 63 162 3.0 9.0 0.00 0.00 0.00 38 1014.4
20260506121503 63 208 1.0 9.0 0.00 0.00 0.00 40 1014.4
20260506120100 63 158 0.0 6.0 0.00 0.00 0.00 39 1014.5
20260506120003 63 176 1.0 6.0 0.00 0.00 0.00 40 1014.5
20260506114601 63 149 1.0 7.0 0.00 0.00 0.00 41 1014.7
20260506113101 62 160 2.0 6.0 0.00 0.00 0.00 42 1014.8
20260506111603 61 190 1.0 8.0 0.00 0.00 0.00 44 1014.9
20260506111501 61 37 1.0 8.0 0.00 0.00 0.00 44 1014.9
20260506110100 62 323 2.0 5.0 0.00 0.00 0.00 43 1014.9
20260506110005 62 270 1.0 5.0 0.00 0.00 0.00 44 1014.9
20260506104501 62 46 0.0 4.0 0.00 0.00 0.00 45 1015.0
20260506103127 60 134 2.0 6.0 0.00 0.00 0.00 44 1015.2
20260506101600 59 156 4.0 8.0 0.00 0.00 0.00 46 1015.3
20260506100002 59 94 3.0 6.0 0.00 0.00 0.00 49 1015.3
20260506094502 57 186 2.0 6.0 0.00 0.00 0.00 53 1015.4
20260506093100 56 134 1.0 11.0 0.00 0.00 0.00 53 1015.3
20260506093001 56 317 3.0 11.0 0.00 0.00 0.00 53 1015.4
20260506091607 55 22 6.0 10.0 0.00 0.00 0.00 52 1015.4